Cancun, Mexico

7:27 PM EST on August 29, 2016 (GMT -0500)
Paseo del mar Residencial Campestre Cancun | | Change Station

Elev 26 ft 21.10 °N, 86.85 °W | Updated 12 seconds ago

Heavy Thunderstorms and Rain
Heavy Thunderstorm Rain
80.2 °F
Feels Like 87 °F
N
0.0
Wind Variable Wind from ESE
Gusts 0.0 mph

Today
High -- | Low -- °F
--% Chance of Precip.
Yesterday
High -- | Low -- °F
Precip. -- in
Pressure 29.80 in
Visibility 0.8 miles
Clouds Overcast 800 ft
Heat Index 87 °F
Dew Point 78 °F
Humidity 93%
Rainfall 1.22 in
Snow Depth Not available.
6:30 AM 7:05 PM
Waning Crescent, 6% visible
METAR MMCZ 292349Z 33009KT 3/4SM +TSRA OVC008CB 23/23 A2982 RMK SLP090 57003 956 65215 8/3// LTGCC
Pressure 29.80 in
Visibility 0.8 miles
Clouds Overcast 800 ft
Heat Index 87 °F
Dew Point 78 °F
Humidity 93%
Rainfall 1.22 in
Snow Depth Not available.
6:30 AM 7:05 PM
Waning Crescent, 6% visible
METAR MMCZ 292349Z 33009KT 3/4SM +TSRA OVC008CB 23/23 A2982 RMK SLP090 57003 956 65215 8/3// LTGCC

10-Day Weather Forecast

No radar image for this location.
×

Almanac

Astronomy

Aug. 29, 2016 Rise Set
Actual Time
Civil Twilight
Nautical Twilight
Astronomical Twilight
Moon
Length of Visible Light
Length of Day
Tomorrow will be .
, % of the Moon is Illuminated

Today's Extremes

Country Highs Country Lows

Community

WunderPhotos

Upload Photos

1,935,703 photos uploaded!

WunderBlog® & News

Nearby

Air Quality

  Air Quality AQ Index Pollutant
Not available.

Snow Depth

Station Depth Elevation

Earthquake Activity

City Distance Mag. Time & Date
Minimum magnitude displayed is 2.5.

Coastal Water Temperatures

Place Temperature

Stations

Nearby Weather Stations

Station Location Temp. Windchill Dew Point Humidity Wind Precip. Elev Updated Type